User: anonymous   Login
Location: Kapla
(46.2483°N, 15.0094°E)
Time: 18:04:57
(UTC+00:00)
Language:

Nadezhda 3 Rocket - Orbit

View from above orbital plane
View from above orbital plane
View from above satellite
View from above satellite

Ground track
Ground track

The orbit data is extracted from the following two-line orbital elements,

1 21153U 91019B   21206.90455222  .00000017  00000-0  26333-5 0  9992
2 21153  82.9262 166.8820 0027709 281.3387  87.9907 13.75987381524633
Epoch (UTC): 25 July 2021 21:42:33
Eccentricity: 0.0027709
inclination: 82.9262°
perigee height: 958 km
apogee height: 998 km
right ascension of ascending node: 166.8820°
argument of perigee: 281.3387°
revolutions per day: 13.75987381
mean anomaly at epoch: 87.9907°
orbit number at epoch: 52463

The dashed part of the orbit path shows where the satellite is in the earth's shadow,  

DLR